Location: Bonac
(42.8765°N, 0.9753°E)
Time: 14:54:27
(UTC+00:00)

USA 267 - Pass Details

Date: 12 January 2026
Orbit: 1101 x 1107 km, 123.0° (Epoch: 10 January)

Event Time Altitude Azimuth Distance (km) Brightness Sun altitude
Exits shadow 20:33:34 37° 272° (W) 1,646 4.4 -41.5°
Drops below altitude 10° 20:37:52 10° 302° (WNW) 2,964 6.1 -42.3°
Sets 20:40:28 0° 308° (NW) 3,924 6.8 -42.7°
